Weather History for PAWM - January, 2013

Change the Weather History Date:

Monday, January 21, 2013

  Actual Average (PAKK) Record (PAKK)
Temperature  
Mean Temperature 24 °F -  
Max Temperature 28 °F 10 °F 37 °F (2014)
Min Temperature 18 °F 1 °F -31 °F (2006)
Degree Days  
Heating Degree Days 42    
Moisture  
Dew Point 19 °F    
Average Humidity 80    
Maximum Humidity 92    
Minimum Humidity 65    
Precipitation  
Precipitation 0.00 in - - ()
Sea Level Pressure  
Sea Level Pressure 29.93 in    
Wind  
Wind Speed 7 mph (NNE)    
Max Wind Speed 13 mph    
Max Gust Speed 17 mph    
Visibility 9 miles    
Events Snow    
Averages and records for this station are not official NWS values.
T = Trace of Precipitation, MM = Missing Value Source: NWS Daily Summary

Daily Weather History Graph

Daily Weather History Graph

Search for Another Location

Airport or City:

Trip Planner

Search our weather history database for the weather conditions in past years. The results will help you decide how hot, cold, wet, or windy it might be!

Date:

Astronomy

Jan. 21, 2013 Rise Set
Actual Time 11:09 AM AKST 5:01 PM AKST
Civil Twilight 10:04 AM AKST 6:06 PM AKST
Nautical Twilight 9:01 AM AKST 7:10 PM AKST
Astronomical Twilight 8:03 AM AKST 8:08 PM AKST
Moon 12:35 PM AKST (1/21) 7:00 AM AKST (1/21)
Length of Visible Light 8h 01m
Length of Day
5h 51m
Waxing Gibbous, 76% of the Moon is Illuminated
Jan 21
Waxing Gibbous
Jan 26
Full
Feb 3
Last Quarter
Feb 9
New
Feb 17
First Quarter

Hourly Weather History & Observations

Time (AKST) Temp. Windchill Dew Point Humidity Pressure Visibility Wind Dir Wind Speed Gust Speed Precip Events Conditions
12:07 AM 24.8 °F 16.9 °F 21.2 °F 86% 29.89 in 10.0 mi North 6.9 mph - N/A   Overcast
12:14 AM 24.8 °F 16.9 °F 21.2 °F 86% 29.89 in 10.0 mi North 6.9 mph - N/A   Overcast
12:58 AM 24.1 °F 14.4 °F 21.0 °F 88% 29.94 in 9.0 mi North 9.2 mph - 0.00 in Snow Light Snow
3:58 AM 26.1 °F 19.4 °F 23.0 °F 88% 29.95 in 3.0 mi NNE 5.8 mph - 0.00 in Snow Light Snow
4:11 AM 26.6 °F 19.1 °F 23.0 °F 86% 29.92 in 3.0 mi North 6.9 mph - 0.00 in Snow Light Snow
4:58 AM 26.1 °F 18.4 °F 24.1 °F 92% 29.96 in 9.0 mi North 6.9 mph - 0.00 in Snow Light Snow
5:58 AM 28.0 °F 20.8 °F 25.0 °F 88% 29.96 in 10.0 mi ENE 6.9 mph - 0.00 in   Overcast
6:58 AM 25.0 °F 15.5 °F 23.0 °F 92% 29.95 in 10.0 mi North 9.2 mph - N/A   Overcast
7:58 AM 24.1 °F 15.2 °F 21.0 °F 88% 29.94 in 10.0 mi North 8.1 mph - N/A   Partly Cloudy
8:58 AM 23.0 °F 18.4 °F 19.9 °F 88% 29.95 in 10.0 mi SSW 3.5 mph - N/A   Clear
9:58 AM 21.9 °F 13.4 °F 19.0 °F 89% 29.96 in 10.0 mi Variable 6.9 mph - N/A   Mostly Cloudy
10:58 AM 23.0 °F 14.7 °F 19.0 °F 85% 29.95 in 10.0 mi North 6.9 mph - N/A   Partly Cloudy
11:58 AM 24.1 °F 16.0 °F 19.0 °F 81% 29.95 in 10.0 mi ENE 6.9 mph - N/A   Clear
12:58 PM 21.9 °F 17.2 °F 18.0 °F 85% 29.96 in 10.0 mi East 3.5 mph - N/A   Mostly Cloudy
1:58 PM 25.0 °F 17.1 °F 18.0 °F 75% 29.96 in 10.0 mi North 6.9 mph - N/A   Overcast
2:58 PM 23.0 °F 18.4 °F 18.0 °F 81% 29.95 in 10.0 mi SSW 3.5 mph - N/A   Overcast
3:58 PM 26.1 °F - 18.0 °F 71% 29.92 in 10.0 mi Calm Calm - N/A   Overcast
4:58 PM 27.0 °F 17.3 °F 18.0 °F 69% 29.91 in 10.0 mi NE 10.4 mph 17.3 mph N/A   Partly Cloudy
5:58 PM 27.0 °F 18.0 °F 17.1 °F 66% 29.89 in 10.0 mi NE 9.2 mph - N/A   Mostly Cloudy
6:58 PM 26.1 °F 18.4 °F 16.0 °F 66% 29.88 in 10.0 mi NNE 6.9 mph - N/A   Scattered Clouds
7:58 PM 24.1 °F - 14.0 °F 65% 29.89 in 10.0 mi Calm Calm - N/A   Clear
8:58 PM 23.0 °F 15.8 °F 12.9 °F 65% 29.89 in 10.0 mi Variable 5.8 mph - N/A   Clear
10:58 PM 19.9 °F 7.3 °F 10.0 °F 65% 29.88 in 10.0 mi NE 12.7 mph - N/A   Clear
11:58 PM 18.0 °F 6.9 °F 9.0 °F 68% 29.87 in 10.0 mi NE 9.2 mph - N/A   Clear